Oak Ridge, TN

4:32 AM EST on November 18, 2019 (GMT -0500)
Oak Ridge

Weather History for KOQT - September, 2019

Change the Weather History Date:

Thursday, September 19, 2019

  Actual Average (WUND) Record (WUND)
Temperature  
Mean Temperature 78 °F -  
Max Temperature 86 °F - - (-1)
Min Temperature 70 °F - - (-1)
Cooling Degree Days 12    
Growing Degree Days 28 (Base 50)    
Moisture  
Dew Point 61 °F    
Average Humidity 58    
Maximum Humidity 73    
Minimum Humidity 43    
Precipitation  
Precipitation 0.00 in - - ()
Sea Level Pressure  
Sea Level Pressure 30.11 in    
Wind  
Wind Speed 3 mph ()    
Max Wind Speed 7 mph    
Max Gust Speed -    
Visibility 10.0 miles    
Events      
Averages and records for this station are not official NWS values.
T = Trace of Precipitation, MM = Missing Value Source: Averaged Metar Reports

Daily Weather History Graph

Daily Weather History Graph

Search for Another Location

Airport or City:

Astronomy

Sep. 19, 2019 Rise Set
Actual Time 7:22 AM EDT 7:38 PM EDT
Civil Twilight 6:56 AM EDT 8:04 PM EDT
Nautical Twilight 6:26 AM EDT 8:34 PM EDT
Astronomical Twilight 5:56 AM EDT 9:04 PM EDT
Moon 10:56 PM EDT (9/19) 12:16 PM EDT (9/19)
Length of Visible Light 13h 07m
Length of Day
12h 16m
Waning Gibbous, 74% of the Moon is Illuminated
Sep 19
Waning Gibbous
Sep 21
Last Quarter
Sep 28
New
Oct 5
First Quarter
Oct 13
Full

Hourly Weather History & Observations

Time (EDT) Temp. Heat Index Dew Point Humidity Pressure Visibility Wind Dir Wind Speed Gust Speed Precip Events Conditions
12:53 AM 78.1 °F - 64.0 °F 62% 30.05 in 10.0 mi SW 4.6 mph - N/A   Overcast
1:53 AM 77.0 °F - 63.0 °F 62% 30.06 in 10.0 mi Variable 3.5 mph - N/A   Overcast
2:53 AM 75.9 °F - 63.0 °F 64% 30.07 in 10.0 mi Variable 3.5 mph - N/A   Overcast
3:53 AM 75.0 °F - 63.0 °F 66% 30.07 in 10.0 mi Variable 3.5 mph - N/A   Overcast
4:53 AM 73.0 °F - 63.0 °F 71% 30.08 in 10.0 mi Variable 3.5 mph - N/A   Overcast
5:53 AM 73.0 °F - 63.0 °F 71% 30.09 in 10.0 mi Variable 4.6 mph - N/A   Overcast
6:53 AM 72.0 °F - 62.1 °F 71% 30.10 in 10.0 mi Variable 3.5 mph - N/A   Mostly Cloudy
7:53 AM 71.1 °F - 61.0 °F 70% 30.13 in 10.0 mi Calm Calm - N/A   Overcast
8:53 AM 73.0 °F - 60.1 °F 64% 30.14 in 10.0 mi West 6.9 mph - N/A   Mostly Cloudy
9:53 AM 75.0 °F - 60.1 °F 60% 30.15 in 10.0 mi Variable 5.8 mph - N/A   Clear
10:53 AM 78.1 °F - 60.1 °F 54% 30.15 in 10.0 mi Variable 6.9 mph - N/A   Clear
11:53 AM 80.1 °F 80.7 °F 59.0 °F 48% 30.15 in 10.0 mi Variable 5.8 mph - N/A   Scattered Clouds
12:53 PM 82.0 °F 82.7 °F 61.0 °F 49% 30.14 in 10.0 mi Variable 5.8 mph - N/A   Scattered Clouds
1:53 PM 82.9 °F 83.2 °F 60.1 °F 46% 30.14 in 10.0 mi Variable 4.6 mph - N/A   Mostly Cloudy
2:53 PM 82.0 °F 82.1 °F 59.0 °F 45% 30.13 in 10.0 mi Variable 4.6 mph - N/A   Overcast
3:53 PM 84.9 °F 84.8 °F 60.1 °F 43% 30.10 in 10.0 mi Variable 3.5 mph - N/A   Partly Cloudy
4:53 PM 84.9 °F 84.8 °F 60.1 °F 43% 30.10 in 10.0 mi Variable 6.9 mph - N/A   Scattered Clouds
5:53 PM 84.0 °F 84.0 °F 60.1 °F 44% 30.10 in 10.0 mi Calm Calm - N/A   Overcast
6:53 PM 82.9 °F 83.2 °F 60.1 °F 46% 30.10 in 10.0 mi SSW 4.6 mph - N/A   Overcast
7:53 PM 81.0 °F 81.6 °F 60.1 °F 49% 30.11 in 10.0 mi SSE 4.6 mph - N/A   Overcast
8:53 PM 79.0 °F - 61.0 °F 54% 30.13 in 10.0 mi Calm Calm - N/A   Overcast
10:53 PM 72.0 °F - 61.0 °F 68% 30.17 in 10.0 mi Calm Calm - N/A   Clear
11:53 PM 70.0 °F - 61.0 °F 73% 30.17 in 10.0 mi Calm Calm - N/A   Clear